TimeEDT,TemperatureF,Dew PointF,Humidity,Sea Level PressureIn,VisibilityMPH,Wind Direction,Wind SpeedMPH,Gust SpeedMPH,PrecipitationIn,Events,Conditions,WindDirDegrees,DateUTC
12:14 AM,44.6,42.8,93,30.09,10.0,WSW,6.9,-,0.00,,Overcast,250,2012-10-08 04:14:00
12:54 AM,45.0,42.1,90,30.10,10.0,WSW,10.4,-,0.00,,Overcast,250,2012-10-08 04:54:00
1:54 AM,45.0,39.9,82,30.12,10.0,WSW,9.2,-,0.00,,Light Drizzle,250,2012-10-08 05:54:00
2:54 AM,44.1,39.9,85,30.13,10.0,WSW,9.2,-,0.00,,Light Drizzle,250,2012-10-08 06:54:00
3:54 AM,44.1,39.0,82,30.14,10.0,WSW,9.2,-,0.01,,Overcast,240,2012-10-08 07:54:00
4:08 AM,44.6,39.2,81,30.14,10.0,WSW,11.5,-,N/A,,Overcast,240,2012-10-08 08:08:00
4:54 AM,43.0,39.0,86,30.15,10.0,WSW,9.2,-,0.00,Rain,Light Rain,240,2012-10-08 08:54:00
5:54 AM,42.1,37.9,85,30.16,10.0,Calm,Calm,-,0.00,,Overcast,0,2012-10-08 09:54:00
6:54 AM,42.1,39.0,89,30.20,10.0,WSW,6.9,-,N/A,,Overcast,250,2012-10-08 10:54:00
7:54 AM,41.0,37.9,89,30.22,10.0,ESE,3.5,-,N/A,,Scattered Clouds,120,2012-10-08 11:54:00
8:54 AM,46.0,39.9,79,30.23,10.0,SSW,5.8,-,N/A,,Scattered Clouds,200,2012-10-08 12:54:00
9:54 AM,48.9,39.9,71,30.24,10.0,SW,3.5,-,N/A,,Scattered Clouds,220,2012-10-08 13:54:00
10:54 AM,50.0,41.0,71,30.25,10.0,SSW,4.6,-,N/A,,Mostly Cloudy,200,2012-10-08 14:54:00
11:54 AM,53.1,39.0,59,30.25,10.0,Calm,Calm,-,N/A,,Mostly Cloudy,0,2012-10-08 15:54:00
12:54 PM,55.9,37.0,49,30.23,10.0,East,4.6,-,N/A,,Clear,90,2012-10-08 16:54:00
1:54 PM,55.9,34.0,44,30.21,10.0,Calm,Calm,-,N/A,,Overcast,0,2012-10-08 17:54:00
2:54 PM,57.0,36.0,45,30.21,10.0,East,4.6,-,N/A,,Overcast,100,2012-10-08 18:54:00
3:54 PM,55.9,37.9,51,30.21,10.0,ENE,6.9,-,N/A,,Overcast,70,2012-10-08 19:54:00
4:54 PM,54.0,39.9,59,30.21,10.0,East,4.6,-,N/A,,Overcast,80,2012-10-08 20:54:00
5:54 PM,53.1,32.0,45,30.22,10.0,South,4.6,-,N/A,,Overcast,170,2012-10-08 21:54:00
6:54 PM,48.9,41.0,74,30.23,10.0,ESE,3.5,-,N/A,,Mostly Cloudy,110,2012-10-08 22:54:00
7:54 PM,48.0,37.9,68,30.22,10.0,SE,4.6,-,N/A,,Mostly Cloudy,140,2012-10-08 23:54:00
8:54 PM,45.0,37.0,74,30.24,10.0,East,4.6,-,N/A,,Mostly Cloudy,90,2012-10-09 00:54:00
9:54 PM,44.1,37.0,76,30.24,10.0,ESE,3.5,-,N/A,,Mostly Cloudy,110,2012-10-09 01:54:00
10:54 PM,41.0,36.0,82,30.25,10.0,ESE,4.6,-,N/A,,Mostly Cloudy,120,2012-10-09 02:54:00
11:54 PM,39.9,35.1,83,30.24,10.0,ESE,5.8,-,N/A,,Scattered Clouds,110,2012-10-09 03:54:00